Location: Bay Ridge
(40.6340°N, 74.0146°W)
Time: 21:13:31
(UTC+00:00)

Cosmos 1980 Rocket - Pass Details

Date: 15 November 2019
Orbit: 828 x 851 km, 71.0° (Epoch: 11 December)

Event Time Altitude Azimuth Distance (km) Brightness Sun altitude
Exits shadow 10:35:38 15° 307° (NW) 2,160 3.8 -12.8°
Maximum altitude 10:39:20 28° 257° (WSW) 1,536 3.1 -12.1°
Drops below altitude 10° 10:44:05 10° 200° (SSW) 2,461 4.6 -11.3°
Sets 10:46:49 0° 189° (S) 3,388 5.4 -10.8°
